Tracking 32136 objects as of 11-Nov-2025
HD Live streaming from Space Station
objects crossing your sky now

STARLINK-32323

Track STARLINK-32323 now!
10-day predictions
STARLINK-32323 is classified as:


NORAD ID: 61677
Int'l Code: 2024-193S
Perigee: 481.5 km
Apogee: 483.2 km
Inclination: 53.2 °
Period: 94.1 minutes
Semi major axis: 6853 km
RCS: Unknown
Launch date: October 26, 2024
Source: United States (US)
Launch site: AIR FORCE EASTERN TEST RANGE (AFETR)
Your satellite tracking list
Your tracking list is empty




NASA's NSSDC Master Catalog

Two Line Element Set (TLE):
1 61677U 24193S   25315.29510095  .00000685  00000-0  35249-4 0  9999
2 61677  53.1618 280.6685 0001243  91.9906 268.1237 15.30189944 58402
Source of the keplerian elements: AFSPC